IRIDIUM 8 [+] 1 24792U 97020A 10250.12867578 -.00000011 00000-0 -10983-4 0 1816 2 24792 86.3900 273.1159 0002424 83.7896 276.3575 14.34218640698442 IRIDIUM 7 [+] 1 24793U 97020B 10250.12232972 -.00000022 00000-0 -14959-4 0 1764 2 24793 86.3916 273.2715 0002450 81.6375 278.5094 14.34218642698449 IRIDIUM 6 [+] 1 24794U 97020C 10250.18575476 -.00000006 00000-0 -91997-5 0 9768 2 24794 86.3919 273.2263 0002610 85.2576 274.8910 14.34218924698452 IRIDIUM 5 [+] 1 24795U 97020D 10250.17944749 -.00000036 00000-0 -19749-4 0 3335 2 24795 86.3907 273.3700 0003778 77.3730 282.7878 14.34217748698530 IRIDIUM 4 [+] 1 24796U 97020E 10250.41408597 .00000004 00000-0 -54840-5 0 1995 2 24796 86.3911 272.8855 0002404 86.6483 273.4983 14.34218836698504 IRIDIUM 914 [-] 1 24836U 97030A 10250.16867133 .00000081 00000-0 20285-4 0 7623 2 24836 86.3922 296.3230 0002010 31.1964 328.9343 14.37497829693236 IRIDIUM 12 [+] 1 24837U 97030B 10250.26527422 .00000088 00000-0 24415-4 0 2024 2 24837 86.3966 304.5413 0002341 87.4020 272.7436 14.34217221692213 IRIDIUM 10 [+] 1 24839U 97030D 10250.18282015 -.00000023 00000-0 -15350-4 0 2000 2 24839 86.3958 304.5697 0002369 84.1835 275.9616 14.34218138692211 IRIDIUM 13 [+] 1 24840U 97030E 10250.20185747 .00000086 00000-0 23715-4 0 1582 2 24840 86.3962 304.6475 0002318 84.7926 275.3537 14.34218346692200 IRIDIUM 16 [-] 1 24841U 97030F 10250.18478061 -.00000003 00000-0 -80751-5 0 1949 2 24841 86.4038 305.2649 0004351 90.9433 269.2275 14.35357868692392 IRIDIUM 911 [-] 1 24842U 97030G 10250.36244711 .00000101 00000-0 23986-4 0 8549 2 24842 86.4469 307.2252 0016398 26.1948 334.0076 14.43265045695789 IRIDIUM 15 [+] 1 24869U 97034A 10250.33214410 -.00000244 00000-0 -94357-4 0 2298 2 24869 86.3999 336.1890 0002390 84.2293 275.9148 14.34212993689194 IRIDIUM 17 [-] 1 24870U 97034B 10250.27153462 .00000070 00000-0 17957-4 0 1938 2 24870 86.3999 336.0393 0002517 72.5696 287.5773 14.34501368689214 IRIDIUM 920 [-] 1 24871U 97034C 10250.33771698 .00000041 00000-0 69473-5 0 8063 2 24871 86.4005 328.0884 0011312 182.0332 178.0837 14.38135923690498 IRIDIUM 18 [+] 1 24872U 97034D 10250.29409821 .00000135 00000-0 41263-4 0 1912 2 24872 86.4010 336.3633 0002483 87.0703 273.0766 14.34215792689184 IRIDIUM 921 [-] 1 24873U 97034E 10250.24088924 .00000098 00000-0 57119-5 0 1865 2 24873 86.3903 144.0606 0010481 28.2410 331.9384 14.97515013716109 IRIDIUM 26 [+] 1 24903U 97043A 10250.41993223 .00000203 00000-0 65584-4 0 2947 2 24903 86.3950 209.8208 0002455 82.1155 278.0332 14.34216477683144 IRIDIUM 25 [+] 1 24904U 97043B 10250.38186744 .00000079 00000-0 20985-4 0 1841 2 24904 86.3949 209.7788 0002481 81.5861 278.5618 14.34216307683101 IRIDIUM 46 [+] 1 24905U 97043C 10250.39455676 .00000101 00000-0 29040-4 0 2057 2 24905 86.3955 210.0960 0002482 83.7721 276.3762 14.34216356683117 IRIDIUM 23 [+] 1 24906U 97043D 10250.43897151 .00000118 00000-0 34938-4 0 2051 2 24906 86.3953 209.6817 0002528 81.8438 278.3054 14.34215876683129 IRIDIUM 22 [+] 1 24907U 97043E 10250.43260468 .00000128 00000-0 38625-4 0 1739 2 24907 86.3963 210.1371 0002463 81.4092 278.7393 14.34215490683125 DUMMY MASS 1 [-] 1 24925U 97048A 10251.11580670 .00000084 00000-0 67109-5 0 6275 2 24925 86.3318 102.8879 0008585 123.8240 236.3805 14.83873350704554 DUMMY MASS 2 [-] 1 24926U 97048B 10251.04769008 .00000106 00000-0 94403-5 0 6229 2 24926 86.3313 103.6365 0009279 129.4643 230.7411 14.83654218704448 IRIDIUM 29 [+] 1 24944U 97051A 10250.30276795 .00000040 00000-0 73664-5 0 1371 2 24944 86.3898 241.4276 0002436 80.8737 279.2735 14.34217322679670 IRIDIUM 32 [+] 1 24945U 97051B 10250.32182951 .00000090 00000-0 24918-4 0 1512 2 24945 86.3898 241.4369 0002437 81.1067 279.0408 14.34216439679690 IRIDIUM 33 [-] 1 24946U 97051C 10250.31724039 .00000104 00000-0 30951-4 0 2736 2 24946 86.3816 241.5602 0009593 32.4609 327.7178 14.32536401679601 IRIDIUM 28 [-] 1 24948U 97051E 10250.33818650 .00000123 00000-0 36884-4 0 250 2 24948 86.3907 241.5652 0002934 81.2729 278.8799 14.34329053679673 IRIDIUM 30 [+] 1 24949U 97051F 10250.31548342 .00000028 00000-0 29800-5 0 1927 2 24949 86.3911 241.4986 0002411 85.8559 274.2919 14.34216353679671 IRIDIUM 31 [+] 1 24950U 97051G 10250.09983824 .00000005 00000-0 -53224-5 0 1666 2 24950 86.3899 241.5857 0002466 86.0416 274.1064 14.34216203679653 IRIDIUM 19 [+] 1 24965U 97056A 10250.36334489 .00000013 00000-0 -22704-5 0 1550 2 24965 86.3916 272.9992 0002405 84.1926 275.9548 14.34218972677834 IRIDIUM 35 [+] 1 24966U 97056B 10250.30625579 -.00000013 00000-0 -11568-4 0 1969 2 24966 86.3910 273.0433 0002456 85.3737 274.7742 14.34219162677802 IRIDIUM 36 [-] 1 24967U 97056C 10250.11804954 .00000148 00000-0 45548-4 0 1417 2 24967 86.3924 273.1943 0002456 81.3601 278.7870 14.34348976677926 IRIDIUM 37 [+] 1 24968U 97056D 10250.42040657 -.00000030 00000-0 -17789-4 0 1670 2 24968 86.3910 273.1086 0002425 85.7657 274.3813 14.34218690677822 IRIDIUM 34 [+] 1 24969U 97056E 10250.16038530 -.00000035 00000-0 -19614-4 0 1460 2 24969 86.3912 273.1603 0002399 84.7358 275.4113 14.34218814677785 IRIDIUM 43 [+] 1 25039U 97069A 10250.28776684 .00000089 00000-0 24660-4 0 1571 2 25039 86.4006 336.3878 0002414 80.7656 279.3812 14.34214666671582 IRIDIUM 41 [+] 1 25040U 97069B 10250.28142813 .00000124 00000-0 37390-4 0 1444 2 25040 86.4006 336.2895 0002588 86.5171 273.6326 14.34214516671581 IRIDIUM 40 [+] 1 25041U 97069C 10250.30679363 .00000114 00000-0 33520-4 0 1746 2 25041 86.3999 336.2415 0002410 84.4739 275.6736 14.34214839671609 IRIDIUM 39 [+] 1 25042U 97069D 10250.31315097 .00000205 00000-0 66025-4 0 1500 2 25042 86.4031 336.4445 0002685 83.3079 276.8414 14.34214037671585 IRIDIUM 38 [-] 1 25043U 97069E 10250.29514452 .00000070 00000-0 17766-4 0 1726 2 25043 86.4005 335.4917 0003170 84.9522 275.2027 14.34758690671716 IRIDIUM 42 [+] 1 25077U 97077A 10250.30045426 .00000115 00000-0 34029-4 0 1668 2 25077 86.4005 336.3288 0002394 83.0500 277.0968 14.34214534667440 IRIDIUM 44 [-] 1 25078U 97077B 10250.31054593 .00000165 00000-0 49319-4 0 6472 2 25078 86.3999 331.1183 0004191 86.3513 273.8161 14.36644219668120 IRIDIUM 45 [+] 1 25104U 97082A 10250.38820565 .00000062 00000-0 15018-4 0 1004 2 25104 86.3949 209.7875 0002486 82.4128 277.7351 14.34216296665654 IRIDIUM 24 [-] 1 25105U 97082B 10250.39636177 .00000152 00000-0 43305-4 0 7062 2 25105 86.3954 199.0504 0010561 190.3577 169.7411 14.38353456666934 IRIDIUM 47 [+] 1 25106U 97082C 10250.33112649 .00000148 00000-0 45884-4 0 949 2 25106 86.3946 209.7509 0002491 82.8507 277.2992 14.34216638665643 IRIDIUM 49 [+] 1 25108U 97082E 10250.34382952 .00000128 00000-0 38482-4 0 1112 2 25108 86.3945 209.7801 0002462 83.1385 277.0095 14.34216150665657 IRIDIUM 52 [+] 1 25169U 98010A 10250.23356184 .00000078 00000-0 20639-4 0 8922 2 25169 86.3956 304.7331 0002403 86.8021 273.3434 14.34217075657049 IRIDIUM 56 [+] 1 25170U 98010B 10250.36675659 -.00000076 00000-0 -34183-4 0 5385 2 25170 86.3962 304.7342 0002389 88.6304 271.5173 14.34216696657045 IRIDIUM 54 [+] 1 25171U 98010C 10250.25893457 .00000121 00000-0 36277-4 0 1192 2 25171 86.3961 304.7291 0002358 84.6917 275.4564 14.34218706657197 IRIDIUM 50 [+] 1 25172U 98010D 10250.22087691 .00000085 00000-0 23180-4 0 1441 2 25172 86.3962 304.7144 0002336 85.0479 275.0997 14.34217134657022 IRIDIUM 53 [+] 1 25173U 98010E 10250.23990537 .00000121 00000-0 35965-4 0 1271 2 25173 86.3961 304.7148 0002403 81.8082 278.3379 14.34218664657035 IRIDIUM 51 [S] 1 25262U 98018A 10250.13672901 -.00000026 00000-0 -13961-4 0 2436 2 25262 86.4431 273.3229 0002540 86.0437 274.1044 14.42946850655823 IRIDIUM 61 [+] 1 25263U 98018B 10250.14770330 -.00000002 00000-0 -78521-5 0 877 2 25263 86.3907 273.1964 0002454 83.1460 277.0002 14.34218692652115 IRIDIUM 55 [+] 1 25272U 98019A 10250.42964018 -.00000015 00000-0 -12500-4 0 741 2 25272 86.3900 241.3192 0002461 82.7808 277.3676 14.34216700651350 IRIDIUM 57 [+] 1 25273U 98019B 10250.40427886 .00000029 00000-0 32986-5 0 1214 2 25273 86.3899 241.5269 0002479 81.8019 278.3473 14.34216557651354 IRIDIUM 58 [+] 1 25274U 98019C 10250.41061600 -.00000010 00000-0 -10760-4 0 9275 2 25274 86.3904 241.6491 0002493 84.9372 275.2113 14.34216481651355 IRIDIUM 59 [+] 1 25275U 98019D 10250.48671856 -.00000017 00000-0 -13051-4 0 7623 2 25275 86.3920 241.6043 0002512 60.2264 299.9183 14.34216592651360 IRIDIUM 60 [+] 1 25276U 98019E 10250.35354458 -.00000023 00000-0 -15199-4 0 1554 2 25276 86.3892 241.3758 0002505 81.4246 278.7233 14.34215898651343 IRIDIUM 62 [+] 1 25285U 98021A 10250.31501527 .00000134 00000-0 40915-4 0 1212 2 25285 86.4009 178.2952 0002409 80.6787 279.4687 14.34219086650299 IRIDIUM 63 [+] 1 25286U 98021B 10250.32135135 .00000115 00000-0 34043-4 0 1328 2 25286 86.4009 178.3877 0002418 81.0951 279.0531 14.34218694650293 IRIDIUM 64 [+] 1 25287U 98021C 10250.32769637 .00000135 00000-0 41096-4 0 786 2 25287 86.4004 178.3127 0002453 78.9180 281.2305 14.34219249650274 IRIDIUM 65 [+] 1 25288U 98021D 10250.33403790 .00000169 00000-0 53409-4 0 1153 2 25288 86.4009 178.2574 0002658 85.8985 274.2519 14.34219501650294 IRIDIUM 66 [+] 1 25289U 98021E 10250.34038097 .00000097 00000-0 27661-4 0 698 2 25289 86.4009 178.1794 0002411 82.3747 277.7729 14.34219191650299 IRIDIUM 67 [+] 1 25290U 98021F 10250.34672610 .00000090 00000-0 25161-4 0 9005 2 25290 86.4002 178.2746 0002420 81.8136 278.3331 14.34218895650306 IRIDIUM 68 [+] 1 25291U 98021G 10250.35306623 .00000119 00000-0 35425-4 0 1115 2 25291 86.4008 178.3446 0002352 86.0784 274.0676 14.34219168650276 IRIDIUM 69 [-] 1 25319U 98026A 10250.37479477 .00000106 00000-0 28877-4 0 9455 2 25319 86.3992 205.4959 0004125 89.7153 270.4522 14.37173565647403 IRIDIUM 71 [-] 1 25320U 98026B 10250.37375210 .00000141 00000-0 40295-4 0 6428 2 25320 86.3985 202.6571 0002365 124.3298 235.8128 14.37750995647715 IRIDIUM 70 [+] 1 25342U 98032A 10250.30866925 .00000124 00000-0 37284-4 0 1318 2 25342 86.4016 178.4898 0002391 89.1721 270.9764 14.34219218644375 IRIDIUM 72 [+] 1 25343U 98032B 10250.36575549 .00000119 00000-0 35500-4 0 1193 2 25343 86.4008 178.2398 0002450 80.4684 279.6794 14.34218924644381 IRIDIUM 73 [-] 1 25344U 98032C 10250.27340194 .00000123 00000-0 28031-4 0 94 2 25344 86.4485 167.2914 0003202 64.7508 295.4028 14.47216410649382 IRIDIUM 74 [S] 1 25345U 98032D 10250.29602714 .00000155 00000-0 40387-4 0 1494 2 25345 86.4522 178.4542 0002430 82.2193 277.9291 14.42954508645861 IRIDIUM 75 [+] 1 25346U 98032E 10250.30232592 .00000099 00000-0 28412-4 0 1481 2 25346 86.4006 178.4299 0002441 82.0170 278.1303 14.34219095644944 IRIDIUM 3 [+] 1 25431U 98048A 10250.42627525 .00000135 00000-0 41138-4 0 772 2 25431 86.3950 209.9263 0002587 94.1951 265.9548 14.34216329630902 IRIDIUM 76 [+] 1 25432U 98048B 10250.30575384 .00000139 00000-0 42561-4 0 51 2 25432 86.3953 209.8102 0001796 85.9750 274.1661 14.34216476630870 IRIDIUM 82 [+] 1 25467U 98051A 10250.27508673 .00000133 00000-0 40424-4 0 2395 2 25467 86.4009 336.3742 0003205 88.3421 271.8157 14.34214751631886 IRIDIUM 81 [+] 1 25468U 98051B 10250.33851151 .00000166 00000-0 52170-4 0 648 2 25468 86.4003 336.1464 0002327 82.2774 277.8688 14.34214638628119 IRIDIUM 80 [+] 1 25469U 98051C 10250.31948340 .00000093 00000-0 26006-4 0 732 2 25469 86.4001 336.3125 0002379 84.3132 275.8329 14.34214385628111 IRIDIUM 77 [+] 1 25471U 98051E 10250.32581849 .00000138 00000-0 42234-4 0 2411 2 25471 86.4012 336.1373 0002363 115.6550 244.4886 14.34215112633311 IRIDIUM 2 [-] 1 25527U 98066A 10250.43521670 .00000489 00000-0 38217-4 0 5505 2 25527 85.5612 25.8507 0012120 40.8051 319.4058 14.98437466645198 IRIDIUM 86 [+] 1 25528U 98066B 10250.28430293 .00000119 00000-0 35485-4 0 2915 2 25528 86.3958 304.3893 0002738 103.3949 256.7554 14.34217237624631 IRIDIUM 84 [+] 1 25530U 98066D 10250.17647699 .00000042 00000-0 77825-5 0 9463 2 25530 86.3957 304.5521 0002407 83.9750 276.1710 14.34217158622257 IRIDIUM 83 [+] 1 25531U 98066E 10250.34772872 .00000019 00000-0 -14690-6 0 777 2 25531 86.3958 304.5104 0002335 87.1929 272.9563 14.34216857619633 IRIDIUM 20 [+] 1 25577U 98074A 10250.33746188 .00000121 00000-0 36023-4 0 9950 2 25577 86.3948 209.7544 0002483 81.2819 278.8677 14.34216652613710 IRIDIUM 11 [S] 1 25578U 98074B 10250.35187113 .00000136 00000-0 26657-4 0 2142 2 25578 86.5148 209.9955 0002601 82.6620 277.4905 14.54937173622562 IRIDIUM 14 [S] 1 25777U 99032A 10250.27932235 -.00000845 00000-0 -20180-3 0 1807 2 25777 86.5194 178.3455 0002656 82.7455 277.3985 14.54935143596938 IRIDIUM 21 [+] 1 25778U 99032B 10250.35940374 .00000160 00000-0 50224-4 0 642 2 25778 86.4016 178.3221 0000340 56.9997 303.1220 14.34219309593398 IRIDIUM 91 [+] 1 27372U 02005A 10250.46771335 -.00000037 00000-0 -20374-4 0 6610 2 27372 86.3921 241.6940 0005780 61.7146 298.4635 14.34215913456929 IRIDIUM 90 [S] 1 27373U 02005B 10250.28088719 .00000099 00000-0 23702-4 0 6308 2 27373 86.4481 304.3948 0003530 337.6917 22.4126 14.42952838454469 IRIDIUM 94 [S] 1 27374U 02005C 10250.40827391 .00000143 00000-0 21626-4 0 7416 2 27374 86.5720 241.2322 0002689 83.0213 277.1332 14.66244572458699 IRIDIUM 95 [+] 1 27375U 02005D 10250.36621719 .00000015 00000-0 -17917-5 0 6369 2 27375 86.3914 241.5363 0002344 82.9056 277.2404 14.34216495456194 IRIDIUM 96 [S] 1 27376U 02005E 10250.41448858 .00000092 00000-0 12411-4 0 7297 2 27376 86.5722 241.1711 0002669 80.7182 279.4343 14.66244056458695 IRIDIUM 97 [+] 1 27450U 02031A 10250.52193466 .00000100 00000-0 28716-4 0 5421 2 27450 86.3904 273.1959 0005042 57.4371 302.7320 14.34219415435535 IRIDIUM 98 [S] 1 27451U 02031B 10250.30636693 -.00000536 00000-0 -16658-3 0 5912 2 27451 86.4547 336.6087 0005974 69.5525 290.6274 14.42950367435323